This is the latest recevied weather packets stored in our database for station/object K1TTC. If no packets are shown the sender has not sent any weather packets the latest 10 day(s).
| Time | Temp. | Humidity | Pressure | Rain* | Wind** | Luminosity | Snow |
|---|---|---|---|---|---|---|---|
| 1777879315 | 5.56° C | 59% | 1011.4 hPa | 0 mm | - | 0 W/m² | - |
| 1777878715 | 5° C | 60% | 1011.5 hPa | 0 mm | - | 0 W/m² | - |
| 1777878116 | 5° C | 62% | 1011.5 hPa | 0 mm | - | 0 W/m² | - |
| 1777877515 | 4.44° C | 63% | 1011.4 hPa | 0 mm | - | 0 W/m² | - |
| 1777876915 | 4.44° C | 64% | 1011.4 hPa | 0 mm | - | 0 W/m² | - |
| 1777876440 | 3.89° C | 65% | 1011.4 hPa | 0 mm | - | 0 W/m² | - |
| 1777875714 | 3.33° C | 65% | 1011.3 hPa | 0 mm | - | 0 W/m² | - |
| 1777875113 | 3.33° C | 66% | 1011.3 hPa | 0 mm | - | 0 W/m² | - |
| 1777874510 | 2.78° C | 66% | 1011.4 hPa | 0 mm | - | 0 W/m² | - |
| 1777873910 | 2.78° C | 65% | 1011.6 hPa | 0 mm | - | 0 W/m² | - |
| 1777873307 | 2.78° C | 65% | 1011.7 hPa | 0 mm | - | 0 W/m² | - |
| 1777872703 | 2.22° C | 64% | 1011.7 hPa | 0 mm | - | 0 W/m² | - |
| 1777872217 | 2.22° C | 63% | 1011.5 hPa | 0 mm | - | 0 W/m² | - |
| 1777871504 | 2.22° C | 62% | 1011.6 hPa | 0 mm | - | 0 W/m² | - |
| 1777870903 | 2.22° C | 61% | 1011.6 hPa | 0 mm | - | 0 W/m² | - |
| 1777870303 | 2.22° C | 61% | 1011.6 hPa | 0 mm | - | 0 W/m² | - |
| 1777869703 | 2.22° C | 61% | 1011.6 hPa | 0 mm | - | 0 W/m² | - |
| 1777869103 | 2.78° C | 60% | 1011.4 hPa | 0 mm | - | 0 W/m² | - |
| 1777868503 | 2.78° C | 60% | 1011.4 hPa | 0 mm | - | 0 W/m² | - |
| 1777867900 | 2.78° C | 59% | 1011.5 hPa | 0 mm | - | 0 W/m² | - |
| 1777867300 | 2.78° C | 59% | 1011.3 hPa | 0 mm | - | 0 W/m² | - |
| 1777866695 | 3.33° C | 58% | 1011.3 hPa | 0 mm | - | 0 W/m² | - |
| 1777866096 | 3.33° C | 57% | 1011.3 hPa | 0 mm | - | 0 W/m² | - |
| 1777865496 | 3.33° C | 57% | 1011.2 hPa | 0 mm | - | 0 W/m² | - |
| 1777864891 | 3.89° C | 57% | 1011.2 hPa | 0 mm | - | 0 W/m² | - |
* Rain latest hour (hover to see other rain measurements)
** Current wind speed in m/s (hover to see current wind gust speed)